GLO2171 SBPV-SBCY

Flight info

Callsign GLO2171
Flight time 1h 46m
Altitude 37000
Route DIKAL UL655 ANRIR DCT CIA DCT
Aircraft B737/M-SDFGIKLORWXY/LB1

Departure

Time 2026-05-08 01:11
Airport Governador Jorge Teixeira de Oliveira International Airport (SBPV)

Arrival

Time 2026-05-08 02:58
Airport Várzea Grande–Marechal Rondon International Airport (SBCY)
Time Latitude Longitude Altitude Speed Heading
2026-05-08 00:53 -8.71420 -63.89931 300 ft 0 kts 86°
2026-05-08 01:00 -8.71420 -63.89936 301 ft 2 kts 86°
2026-05-08 01:01 -8.71421 -63.89956 300 ft 3 kts 85°
2026-05-08 01:01 -8.71423 -63.89976 299 ft 3 kts 85°
2026-05-08 01:01 -8.71424 -63.89997 298 ft 3 kts 88°
2026-05-08 01:01 -8.71424 -63.90017 298 ft 3 kts 94°
2026-05-08 01:02 -8.71421 -63.90037 299 ft 3 kts 114°
2026-05-08 01:02 -8.71410 -63.90052 300 ft 3 kts 148°
2026-05-08 01:02 -8.71396 -63.90058 299 ft 1 kts 177°
2026-05-08 01:02 -8.71391 -63.90058 299 ft 0 kts 177°
2026-05-08 01:05 -8.71412 -63.90057 299 ft 4 kts 177°
2026-05-08 01:05 -8.71439 -63.90055 298 ft 4 kts 177°
2026-05-08 01:06 -8.71466 -63.90054 300 ft 4 kts 177°
2026-05-08 01:06 -8.71492 -63.90052 298 ft 4 kts 177°
2026-05-08 01:06 -8.71518 -63.90051 301 ft 4 kts 177°
2026-05-08 01:06 -8.71543 -63.90050 298 ft 4 kts 177°
2026-05-08 01:07 -8.71567 -63.90048 300 ft 3 kts 176°
2026-05-08 01:07 -8.71591 -63.90047 300 ft 3 kts 176°
2026-05-08 01:07 -8.71614 -63.90046 298 ft 3 kts 176°
2026-05-08 01:07 -8.71636 -63.90044 300 ft 3 kts 176°
2026-05-08 01:08 -8.71657 -63.90043 299 ft 3 kts 176°
2026-05-08 01:08 -8.71678 -63.90042 298 ft 3 kts 176°
2026-05-08 01:08 -8.71699 -63.90041 300 ft 3 kts 176°
2026-05-08 01:08 -8.71718 -63.90039 298 ft 3 kts 176°
2026-05-08 01:09 -8.71737 -63.90038 300 ft 3 kts 176°
2026-05-08 01:09 -8.71755 -63.90037 298 ft 3 kts 176°
2026-05-08 01:09 -8.71777 -63.90036 301 ft 4 kts 176°
2026-05-08 01:09 -8.71808 -63.90033 299 ft 4 kts 175°
2026-05-08 01:10 -8.71980 -63.90168 299 ft 0 kts 356°
2026-05-08 01:10 -8.71913 -63.90172 300 ft 42 kts 356°
2026-05-08 01:10 -8.70968 -63.90238 304 ft 155 kts 355°
2026-05-08 01:11 -8.70172 -63.90294 500 ft 184 kts 357°
2026-05-08 01:11 -8.68929 -63.90356 1652 ft 176 kts 356°
2026-05-08 01:11 -8.67705 -63.90428 2665 ft 179 kts 356°
2026-05-08 01:11 -8.66360 -63.90512 3132 ft 210 kts 356°
2026-05-08 01:12 -8.64259 -63.90586 3745 ft 239 kts
2026-05-08 01:12 -8.63180 -63.90236 4295 ft 244 kts 28°
2026-05-08 01:12 -8.61938 -63.89077 5178 ft 248 kts 57°
2026-05-08 01:12 -8.61416 -63.87435 6000 ft 255 kts 87°
2026-05-08 01:13 -8.61798 -63.85663 6806 ft 261 kts 117°
2026-05-08 01:13 -8.63010 -63.84336 7561 ft 265 kts 147°
2026-05-08 01:13 -8.64679 -63.83530 8365 ft 268 kts 159°
2026-05-08 01:13 -8.66444 -63.82891 9132 ft 271 kts 161°
2026-05-08 01:14 -8.68244 -63.82271 9893 ft 275 kts 161°
2026-05-08 01:14 -8.70061 -63.81637 10591 ft 278 kts 161°
2026-05-08 01:14 -8.71894 -63.80983 11303 ft 280 kts 160°
2026-05-08 01:14 -8.73743 -63.80313 11994 ft 283 kts 160°
2026-05-08 01:15 -8.75600 -63.79631 12679 ft 286 kts 160°
2026-05-08 01:15 -8.77477 -63.78938 13352 ft 289 kts 160°
2026-05-08 01:15 -8.79419 -63.78217 13753 ft 309 kts 159°
2026-05-08 01:15 -8.81521 -63.77434 13928 ft 335 kts 159°
2026-05-08 01:16 -8.83772 -63.76596 14234 ft 353 kts 159°
2026-05-08 01:16 -8.86072 -63.75729 14849 ft 359 kts 157°
2026-05-08 01:16 -8.88285 -63.74494 15593 ft 360 kts 145°
2026-05-08 01:16 -8.90338 -63.73040 16366 ft 361 kts 143°
2026-05-08 01:17 -8.92359 -63.71570 17065 ft 364 kts 143°
2026-05-08 01:17 -8.94431 -63.70076 17758 ft 367 kts 143°
2026-05-08 01:17 -8.96532 -63.68589 18411 ft 370 kts 143°
2026-05-08 01:17 -8.98660 -63.67103 18994 ft 373 kts 143°
2026-05-08 01:18 -9.00815 -63.65605 19559 ft 377 kts 143°
2026-05-08 01:18 -9.02980 -63.64076 20123 ft 380 kts 142°
2026-05-08 01:18 -9.05124 -63.62476 20683 ft 383 kts 141°
2026-05-08 01:18 -9.07266 -63.60842 21242 ft 387 kts 141°
2026-05-08 01:19 -9.09417 -63.59194 21786 ft 390 kts 141°
2026-05-08 01:19 -9.11563 -63.57555 22315 ft 393 kts 141°
2026-05-08 01:19 -9.13787 -63.55861 22847 ft 397 kts 141°
2026-05-08 01:19 -9.15976 -63.54199 23353 ft 400 kts 141°
2026-05-08 01:20 -9.18241 -63.52483 23797 ft 403 kts 141°
2026-05-08 01:20 -9.20472 -63.50794 24188 ft 407 kts 141°
2026-05-08 01:20 -9.22775 -63.49051 24610 ft 410 kts 141°
2026-05-08 01:20 -9.25035 -63.47341 24996 ft 414 kts 141°
2026-05-08 01:21 -9.27362 -63.45579 25397 ft 417 kts 142°
2026-05-08 01:21 -9.29694 -63.43813 25791 ft 420 kts 142°
2026-05-08 01:21 -9.32045 -63.42033 26178 ft 424 kts 142°
2026-05-08 01:21 -9.34416 -63.40237 26566 ft 427 kts 142°
2026-05-08 01:22 -9.36813 -63.38420 26950 ft 430 kts 142°
2026-05-08 01:22 -9.39216 -63.36600 27331 ft 433 kts 142°
2026-05-08 01:22 -9.41603 -63.34723 27696 ft 437 kts 139°
2026-05-08 01:22 -9.43889 -63.32673 28063 ft 440 kts 136°
2026-05-08 01:23 -9.46117 -63.30535 28440 ft 442 kts 135°
2026-05-08 01:23 -9.48336 -63.28361 28793 ft 446 kts 135°
2026-05-08 01:23 -9.50550 -63.26196 29133 ft 449 kts 136°
2026-05-08 01:23 -9.52817 -63.23999 29469 ft 452 kts 136°
2026-05-08 01:24 -9.55110 -63.21798 29822 ft 455 kts 136°
2026-05-08 01:24 -9.57425 -63.19592 30136 ft 458 kts 137°
2026-05-08 01:24 -9.59754 -63.17382 30431 ft 460 kts 137°
2026-05-08 01:24 -9.62105 -63.15155 30724 ft 463 kts 137°
2026-05-08 01:25 -9.64465 -63.12921 31025 ft 465 kts 137°
2026-05-08 01:25 -9.66831 -63.10682 31299 ft 467 kts 137°
2026-05-08 01:25 -9.69215 -63.08423 31575 ft 470 kts 137°
2026-05-08 01:25 -9.71606 -63.06157 31842 ft 472 kts 137°
2026-05-08 01:26 -9.74009 -63.03879 32120 ft 474 kts 137°
2026-05-08 01:26 -9.76421 -63.01591 32480 ft 474 kts 137°
2026-05-08 01:26 -9.78828 -62.99307 32923 ft 472 kts 137°
2026-05-08 01:26 -9.81225 -62.97033 33354 ft 471 kts 137°
2026-05-08 01:27 -9.83611 -62.94768 33733 ft 471 kts 137°
2026-05-08 01:27 -9.85984 -62.92515 34056 ft 472 kts 137°
2026-05-08 01:27 -9.88381 -62.90239 34401 ft 471 kts 137°
2026-05-08 01:27 -9.90760 -62.87979 34813 ft 468 kts 137°
2026-05-08 01:28 -9.93131 -62.85727 35201 ft 466 kts 138°
2026-05-08 01:28 -9.95496 -62.83480 35526 ft 465 kts 138°
2026-05-08 01:28 -9.97861 -62.81233 35829 ft 465 kts 138°
2026-05-08 01:28 -10.00221 -62.78990 36141 ft 464 kts 138°
2026-05-08 01:29 -10.02581 -62.76746 36482 ft 462 kts 138°
2026-05-08 01:29 -10.04902 -62.74539 36798 ft 461 kts 138°
2026-05-08 01:29 -10.07244 -62.72311 37096 ft 460 kts 138°
2026-05-08 01:29 -10.09576 -62.70092 37386 ft 460 kts 138°
2026-05-08 01:30 -10.11912 -62.67870 37686 ft 458 kts 138°
2026-05-08 01:30 -10.14232 -62.65661 37985 ft 457 kts 138°
2026-05-08 01:30 -10.16556 -62.63449 38257 ft 457 kts 138°
2026-05-08 01:30 -10.18869 -62.61246 38508 ft 456 kts 138°
2026-05-08 01:31 -10.21183 -62.59042 38743 ft 455 kts 138°
2026-05-08 01:31 -10.23492 -62.56844 38906 ft 456 kts 138°
2026-05-08 01:31 -10.25823 -62.54624 38896 ft 460 kts 138°
2026-05-08 01:32 -10.30440 -62.50224 38898 ft 457 kts 138°
2026-05-08 01:32 -10.35057 -62.45820 38900 ft 453 kts 138°
2026-05-08 01:33 -10.39643 -62.41444 38901 ft 451 kts 138°
2026-05-08 01:33 -10.44211 -62.37083 38911 ft 449 kts 138°
2026-05-08 01:34 -10.48731 -62.32766 38911 ft 449 kts 138°
2026-05-08 01:34 -10.53289 -62.28412 38915 ft 450 kts 138°
2026-05-08 01:35 -10.57863 -62.24040 38914 ft 453 kts 138°
2026-05-08 01:35 -10.62476 -62.19629 38911 ft 456 kts 138°
2026-05-08 01:36 -10.67106 -62.15198 38908 ft 459 kts 138°
2026-05-08 01:36 -10.71778 -62.10727 38908 ft 462 kts 138°
2026-05-08 01:37 -10.76459 -62.06244 38901 ft 464 kts 138°
2026-05-08 01:37 -10.81161 -62.01738 38904 ft 465 kts 139°
2026-05-08 01:38 -10.85870 -61.97224 38904 ft 465 kts 139°
2026-05-08 01:38 -10.90545 -61.92668 38901 ft 465 kts 136°
2026-05-08 01:39 -10.94982 -61.87937 38903 ft 464 kts 135°
2026-05-08 01:39 -10.99406 -61.83141 38899 ft 463 kts 135°
2026-05-08 01:40 -11.03837 -61.78390 38903 ft 463 kts 135°
2026-05-08 01:40 -11.08286 -61.73649 38904 ft 462 kts 135°
2026-05-08 01:41 -11.12730 -61.68918 38912 ft 461 kts 135°
2026-05-08 01:41 -11.17158 -61.64200 38898 ft 461 kts 135°
2026-05-08 01:42 -11.21563 -61.59503 38896 ft 461 kts 135°
2026-05-08 01:42 -11.25997 -61.54771 38901 ft 461 kts 135°
2026-05-08 01:43 -11.30424 -61.50044 38903 ft 461 kts 135°
2026-05-08 01:43 -11.34848 -61.45320 38897 ft 461 kts 135°
2026-05-08 01:44 -11.39337 -61.40658 38903 ft 460 kts 137°
2026-05-08 01:44 -11.43895 -61.36129 38897 ft 460 kts 138°
2026-05-08 01:45 -11.48478 -61.31576 38897 ft 460 kts 137°
2026-05-08 01:45 -11.53046 -61.27007 38894 ft 460 kts 137°
2026-05-08 01:46 -11.57616 -61.22417 38908 ft 460 kts 137°
2026-05-08 01:46 -11.62176 -61.17833 38900 ft 461 kts 137°
2026-05-08 01:47 -11.66752 -61.13231 38901 ft 461 kts 137°
2026-05-08 01:47 -11.71319 -61.08637 38894 ft 462 kts 137°
2026-05-08 01:48 -11.78164 -61.01747 38911 ft 462 kts 137°
2026-05-08 01:48 -11.82742 -60.97137 38903 ft 463 kts 137°
2026-05-08 01:49 -11.87324 -60.92519 38902 ft 463 kts 137°
2026-05-08 01:49 -11.91909 -60.87897 38909 ft 463 kts 137°
2026-05-08 01:50 -11.96496 -60.83270 38907 ft 463 kts 137°
2026-05-08 01:50 -12.01076 -60.78648 38904 ft 462 kts 137°
2026-05-08 01:51 -12.05650 -60.74029 38906 ft 462 kts 137°
2026-05-08 01:51 -12.10200 -60.69432 38909 ft 461 kts 137°
2026-05-08 01:52 -12.14768 -60.64814 38905 ft 461 kts 137°
2026-05-08 01:52 -12.19321 -60.60210 38914 ft 460 kts 137°
2026-05-08 01:53 -12.23872 -60.55604 38913 ft 460 kts 137°
2026-05-08 01:53 -12.28398 -60.51023 38916 ft 460 kts 137°
2026-05-08 01:54 -12.32955 -60.46413 38919 ft 460 kts 137°
2026-05-08 01:54 -12.37522 -60.41799 38917 ft 461 kts 137°
2026-05-08 01:55 -12.42086 -60.37184 38925 ft 461 kts 137°
2026-05-08 01:55 -12.46648 -60.32568 38925 ft 462 kts 137°
2026-05-08 01:56 -12.51223 -60.27935 38926 ft 462 kts 137°
2026-05-08 01:56 -12.55022 -60.24087 38928 ft 463 kts 137°
2026-05-08 01:57 -12.60339 -60.18696 38930 ft 463 kts 138°
2026-05-08 01:57 -12.64924 -60.14045 38933 ft 464 kts 138°
2026-05-08 01:58 -12.68742 -60.10171 38932 ft 465 kts 138°
2026-05-08 01:58 -12.73259 -60.05417 38929 ft 466 kts 136°
2026-05-08 01:59 -12.77679 -60.00554 38930 ft 466 kts 135°
2026-05-08 01:59 -12.82105 -59.95681 38928 ft 466 kts 135°
2026-05-08 02:00 -12.86512 -59.90857 38930 ft 467 kts 136°
2026-05-08 02:00 -12.90963 -59.86000 38927 ft 468 kts 136°
2026-05-08 02:01 -12.95425 -59.81130 38933 ft 468 kts 136°
2026-05-08 02:01 -12.99889 -59.76255 38924 ft 469 kts 136°
2026-05-08 02:02 -13.04354 -59.71374 38935 ft 469 kts 136°
2026-05-08 02:02 -13.08827 -59.66482 38925 ft 470 kts 136°
2026-05-08 02:03 -13.13294 -59.61594 38932 ft 470 kts 136°
2026-05-08 02:03 -13.17735 -59.56731 38923 ft 469 kts 136°
2026-05-08 02:04 -13.22205 -59.51833 38932 ft 469 kts 136°
2026-05-08 02:04 -13.26665 -59.46943 38936 ft 468 kts 136°
2026-05-08 02:05 -13.31089 -59.42091 38931 ft 467 kts 136°
2026-05-08 02:05 -13.35530 -59.37217 38931 ft 466 kts 136°
2026-05-08 02:06 -13.39969 -59.32343 38929 ft 466 kts 136°
2026-05-08 02:06 -13.44360 -59.27518 38931 ft 465 kts 136°
2026-05-08 02:07 -13.48771 -59.22670 38934 ft 464 kts 136°
2026-05-08 02:07 -13.53174 -59.17826 38939 ft 463 kts 136°
2026-05-08 02:08 -13.57573 -59.12984 38935 ft 463 kts 136°
2026-05-08 02:08 -13.61979 -59.08132 38943 ft 463 kts 136°
2026-05-08 02:09 -13.66371 -59.03291 38938 ft 463 kts 136°
2026-05-08 02:09 -13.70746 -58.98466 38944 ft 463 kts 135°
2026-05-08 02:10 -13.75150 -58.93607 38943 ft 464 kts 135°
2026-05-08 02:10 -13.79561 -58.88742 38943 ft 465 kts 136°
2026-05-08 02:11 -13.83977 -58.83881 38944 ft 465 kts 136°
2026-05-08 02:11 -13.88365 -58.79047 38941 ft 465 kts 136°
2026-05-08 02:12 -13.92795 -58.74162 38938 ft 466 kts 136°
2026-05-08 02:12 -13.97218 -58.69280 38948 ft 466 kts 136°
2026-05-08 02:13 -14.01638 -58.64400 38945 ft 466 kts 135°
2026-05-08 02:13 -14.06066 -58.59504 38951 ft 466 kts 135°
2026-05-08 02:14 -14.10486 -58.54613 38946 ft 466 kts 135°
2026-05-08 02:14 -14.14879 -58.49747 38947 ft 466 kts 135°
2026-05-08 02:15 -14.19297 -58.44852 38941 ft 466 kts 135°
2026-05-08 02:15 -14.23708 -58.39961 38948 ft 466 kts 135°
2026-05-08 02:16 -14.28132 -58.35052 38944 ft 466 kts 135°
2026-05-08 02:16 -14.32546 -58.30151 38949 ft 465 kts 135°
2026-05-08 02:17 -14.36945 -58.25265 38944 ft 465 kts 135°
2026-05-08 02:17 -14.41329 -58.20390 38943 ft 465 kts 135°
2026-05-08 02:18 -14.45738 -58.15477 38936 ft 465 kts 135°
2026-05-08 02:18 -14.50157 -58.10547 38328 ft 473 kts 135°
2026-05-08 02:19 -14.52383 -58.08061 37750 ft 471 kts 135°
2026-05-08 02:19 -14.54609 -58.05574 37133 ft 470 kts 135°
2026-05-08 02:19 -14.56822 -58.03100 36596 ft 468 kts 135°
2026-05-08 02:19 -14.59019 -58.00643 36186 ft 462 kts 135°
2026-05-08 02:20 -14.61191 -57.98214 35720 ft 458 kts 135°
2026-05-08 02:20 -14.63346 -57.95804 35263 ft 455 kts 135°
2026-05-08 02:20 -14.65488 -57.93407 34810 ft 452 kts 135°
2026-05-08 02:20 -14.67585 -57.91062 34358 ft 449 kts 135°
2026-05-08 02:21 -14.69698 -57.88697 33888 ft 447 kts 135°
2026-05-08 02:21 -14.71803 -57.86340 33369 ft 444 kts 135°
2026-05-08 02:21 -14.73892 -57.84002 32907 ft 441 kts 135°
2026-05-08 02:21 -14.75965 -57.81680 32454 ft 437 kts 135°
2026-05-08 02:22 -14.78021 -57.79375 32010 ft 434 kts 135°
2026-05-08 02:22 -14.80065 -57.77085 31573 ft 431 kts 135°
2026-05-08 02:22 -14.82095 -57.74808 31137 ft 428 kts 135°
2026-05-08 02:22 -14.84108 -57.72551 30716 ft 425 kts 135°
2026-05-08 02:23 -14.86107 -57.70309 30289 ft 423 kts 135°
2026-05-08 02:23 -14.88094 -57.68079 29828 ft 421 kts 135°
2026-05-08 02:23 -14.90067 -57.65864 29344 ft 418 kts 134°
2026-05-08 02:23 -14.92029 -57.63660 28868 ft 414 kts 134°
2026-05-08 02:24 -14.93942 -57.61511 28415 ft 410 kts 134°
2026-05-08 02:24 -14.95868 -57.59347 27962 ft 406 kts 134°
2026-05-08 02:24 -14.97746 -57.57172 27511 ft 403 kts 129°
2026-05-08 02:24 -14.99297 -57.54763 27088 ft 401 kts 119°
2026-05-08 02:25 -15.00417 -57.52157 26853 ft 393 kts 109°
2026-05-08 02:25 -15.01292 -57.49508 26619 ft 387 kts 109°
2026-05-08 02:25 -15.02138 -57.46877 26290 ft 383 kts 108°
2026-05-08 02:25 -15.02975 -57.44263 25888 ft 381 kts 108°
2026-05-08 02:26 -15.03801 -57.41695 25482 ft 380 kts 108°
2026-05-08 02:26 -15.04637 -57.39113 25062 ft 378 kts 108°
2026-05-08 02:26 -15.05477 -57.36535 24617 ft 378 kts 108°
2026-05-08 02:26 -15.06319 -57.33955 24178 ft 377 kts 108°
2026-05-08 02:27 -15.07160 -57.31385 23735 ft 376 kts 108°
2026-05-08 02:27 -15.07998 -57.28826 23260 ft 376 kts 108°
2026-05-08 02:27 -15.08835 -57.26271 22774 ft 374 kts 108°
2026-05-08 02:27 -15.09668 -57.23727 22313 ft 372 kts 108°
2026-05-08 02:28 -15.10500 -57.21188 21860 ft 369 kts 108°
2026-05-08 02:28 -15.11318 -57.18689 21414 ft 366 kts 108°
2026-05-08 02:28 -15.12124 -57.16223 20986 ft 364 kts 108°
2026-05-08 02:28 -15.12933 -57.13750 20548 ft 362 kts 109°
2026-05-08 02:29 -15.13737 -57.11290 20116 ft 360 kts 109°
2026-05-08 02:29 -15.14537 -57.08841 19683 ft 358 kts 109°
2026-05-08 02:29 -15.15333 -57.06404 19232 ft 357 kts 109°
2026-05-08 02:29 -15.16127 -57.03973 18796 ft 354 kts 109°
2026-05-08 02:30 -15.16907 -57.01583 18357 ft 347 kts 109°
2026-05-08 02:30 -15.17670 -56.99242 17895 ft 340 kts 109°
2026-05-08 02:30 -15.18421 -56.96941 17446 ft 333 kts 109°
2026-05-08 02:30 -15.19153 -56.94693 17022 ft 326 kts 109°
2026-05-08 02:31 -15.19874 -56.92483 16611 ft 320 kts 109°
2026-05-08 02:31 -15.20570 -56.90346 16209 ft 314 kts 109°
2026-05-08 02:31 -15.21269 -56.88199 15824 ft 309 kts 109°
2026-05-08 02:31 -15.21947 -56.86117 15457 ft 310 kts 109°
2026-05-08 02:32 -15.22640 -56.83990 15076 ft 315 kts 109°
2026-05-08 02:32 -15.23358 -56.81785 14644 ft 323 kts 109°
2026-05-08 02:32 -15.24068 -56.79601 14223 ft 323 kts 109°
2026-05-08 02:32 -15.24781 -56.77409 13812 ft 317 kts 109°
2026-05-08 02:33 -15.25479 -56.75258 13355 ft 312 kts 109°
2026-05-08 02:33 -15.26163 -56.73152 12936 ft 306 kts 109°
2026-05-08 02:33 -15.26836 -56.71080 12524 ft 300 kts 109°
2026-05-08 02:33 -15.27496 -56.69047 12146 ft 296 kts 109°
2026-05-08 02:34 -15.28156 -56.67014 11759 ft 298 kts 109°
2026-05-08 02:34 -15.28822 -56.64960 11378 ft 305 kts 109°
2026-05-08 02:34 -15.29498 -56.62876 10967 ft 312 kts 109°
2026-05-08 02:34 -15.30189 -56.60745 10524 ft 310 kts 109°
2026-05-08 02:35 -15.30876 -56.58625 10128 ft 304 kts 109°
2026-05-08 02:35 -15.31523 -56.56626 9971 ft 290 kts 109°
2026-05-08 02:35 -15.32157 -56.54669 9609 ft 284 kts 109°
2026-05-08 02:35 -15.32780 -56.52745 9255 ft 279 kts 108°
2026-05-08 02:36 -15.33394 -56.50849 8905 ft 275 kts 108°
2026-05-08 02:36 -15.34001 -56.48973 8565 ft 277 kts 108°
2026-05-08 02:36 -15.34622 -56.47053 8226 ft 284 kts 107°
2026-05-08 02:36 -15.35247 -56.45119 7872 ft 288 kts 107°
2026-05-08 02:37 -15.35876 -56.43173 7495 ft 282 kts 107°
2026-05-08 02:37 -15.36493 -56.41264 7132 ft 276 kts 106°
2026-05-08 02:37 -15.37097 -56.39395 6792 ft 271 kts 106°
2026-05-08 02:37 -15.37690 -56.37560 6452 ft 266 kts 105°
2026-05-08 02:38 -15.38272 -56.35757 6103 ft 262 kts 105°
2026-05-08 02:38 -15.38846 -56.33977 5755 ft 257 kts 105°
2026-05-08 02:38 -15.39411 -56.32223 5437 ft 257 kts 105°
2026-05-08 02:38 -15.39985 -56.30439 5123 ft 265 kts 105°
2026-05-08 02:39 -15.40567 -56.28631 4783 ft 272 kts 105°
2026-05-08 02:39 -15.41163 -56.26782 4416 ft 267 kts 105°
2026-05-08 02:39 -15.41774 -56.24983 4076 ft 262 kts 109°
2026-05-08 02:39 -15.42371 -56.23259 4001 ft 244 kts 111°
2026-05-08 02:40 -15.43452 -56.21981 4007 ft 237 kts 148°
2026-05-08 02:40 -15.45015 -56.21440 4007 ft 238 kts 175°
2026-05-08 02:40 -15.46647 -56.21590 4005 ft 236 kts 200°
2026-05-08 02:40 -15.48038 -56.22406 4004 ft 232 kts 226°
2026-05-08 02:41 -15.48954 -56.23742 4005 ft 227 kts 252°
2026-05-08 02:41 -15.49304 -56.25316 4006 ft 222 kts 273°
2026-05-08 02:41 -15.49101 -56.26872 4011 ft 218 kts 289°
2026-05-08 02:41 -15.48646 -56.28373 4002 ft 218 kts 292°
2026-05-08 02:42 -15.48163 -56.29875 3997 ft 219 kts 292°
2026-05-08 02:42 -15.47682 -56.31377 4000 ft 219 kts 291°
2026-05-08 02:42 -15.47207 -56.32876 3997 ft 218 kts 291°
2026-05-08 02:42 -15.46618 -56.34293 3976 ft 212 kts 310°
2026-05-08 02:43 -15.45581 -56.35327 4003 ft 204 kts 329°
2026-05-08 02:43 -15.44303 -56.35901 4015 ft 202 kts 348°
2026-05-08 02:43 -15.42890 -56.35959 4006 ft 207 kts
2026-05-08 02:43 -15.41551 -56.35452 3996 ft 210 kts 30°
2026-05-08 02:44 -15.40486 -56.34410 3995 ft 214 kts 52°
2026-05-08 02:44 -15.39885 -56.32989 4003 ft 218 kts 72°
2026-05-08 02:44 -15.39796 -56.31406 3988 ft 225 kts 95°
2026-05-08 02:44 -15.40190 -56.29831 4007 ft 227 kts 104°
2026-05-08 02:45 -15.40686 -56.28274 3996 ft 228 kts 105°
2026-05-08 02:45 -15.41186 -56.26722 3997 ft 228 kts 104°
2026-05-08 02:45 -15.41685 -56.25156 3993 ft 228 kts 104°
2026-05-08 02:45 -15.42012 -56.24125 3993 ft 228 kts 105°
2026-05-08 02:46 -15.43274 -56.22395 4011 ft 235 kts 146°
2026-05-08 02:46 -15.44827 -56.21893 3996 ft 237 kts 180°
2026-05-08 02:46 -15.46399 -56.22303 4001 ft 233 kts 214°
2026-05-08 02:46 -15.47199 -56.23022 4002 ft 228 kts 236°
2026-05-08 02:47 -15.47840 -56.25031 4010 ft 219 kts 275°
2026-05-08 02:47 -15.47710 -56.26055 4005 ft 214 kts 288°
2026-05-08 02:47 -15.47289 -56.27493 3985 ft 204 kts 292°
2026-05-08 02:47 -15.46841 -56.28871 3985 ft 200 kts 292°
2026-05-08 02:48 -15.46407 -56.30216 4006 ft 197 kts 292°
2026-05-08 02:48 -15.45973 -56.31572 4011 ft 200 kts 292°
2026-05-08 02:48 -15.45422 -56.32880 3986 ft 196 kts 310°
2026-05-08 02:48 -15.44455 -56.33766 3978 ft 178 kts 333°
2026-05-08 02:49 -15.43328 -56.34145 3981 ft 166 kts 354°
2026-05-08 02:49 -15.42202 -56.34049 4026 ft 163 kts 14°
2026-05-08 02:49 -15.41176 -56.33500 4003 ft 169 kts 36°
2026-05-08 02:49 -15.40443 -56.32564 3981 ft 163 kts 59°
2026-05-08 02:50 -15.40113 -56.31492 3993 ft 150 kts 75°
2026-05-08 02:50 -15.40108 -56.30425 3981 ft 151 kts 98°
2026-05-08 02:50 -15.40429 -56.29401 4010 ft 154 kts 102°
2026-05-08 02:50 -15.40742 -56.28349 4003 ft 152 kts 101°
2026-05-08 02:51 -15.41056 -56.27307 4001 ft 151 kts 102°
2026-05-08 02:51 -15.41373 -56.26268 3997 ft 151 kts 102°
2026-05-08 02:51 -15.41693 -56.25233 3996 ft 151 kts 102°
2026-05-08 02:51 -15.42013 -56.24202 3984 ft 152 kts 103°
2026-05-08 02:52 -15.42709 -56.23358 3805 ft 162 kts 156°
2026-05-08 02:52 -15.43774 -56.22963 3673 ft 165 kts 155°
2026-05-08 02:52 -15.44817 -56.22467 3469 ft 162 kts 152°
2026-05-08 02:52 -15.45822 -56.21962 3281 ft 160 kts 151°
2026-05-08 02:53 -15.46819 -56.21449 3100 ft 160 kts 150°
2026-05-08 02:53 -15.47815 -56.20931 2918 ft 160 kts 150°
2026-05-08 02:53 -15.48799 -56.20414 2724 ft 160 kts 150°
2026-05-08 02:53 -15.49782 -56.19900 2649 ft 158 kts 150°
2026-05-08 02:54 -15.50771 -56.19379 2557 ft 159 kts 150°
2026-05-08 02:54 -15.51752 -56.18861 2507 ft 158 kts 150°
2026-05-08 02:54 -15.52735 -56.18342 2462 ft 159 kts 150°
2026-05-08 02:54 -15.53723 -56.17818 2425 ft 159 kts 150°
2026-05-08 02:55 -15.54698 -56.17301 2387 ft 159 kts 150°
2026-05-08 02:55 -15.56661 -56.16259 2280 ft 159 kts 150°
2026-05-08 02:55 -15.57652 -56.15732 2090 ft 158 kts 150°
2026-05-08 02:56 -15.58620 -56.15218 1898 ft 154 kts 150°
2026-05-08 02:56 -15.59564 -56.14717 1704 ft 152 kts 150°
2026-05-08 02:56 -15.60504 -56.14218 1509 ft 151 kts 150°
2026-05-08 02:56 -15.61432 -56.13725 1322 ft 147 kts 151°
2026-05-08 02:57 -15.62332 -56.13247 1109 ft 144 kts 152°
2026-05-08 02:57 -15.63224 -56.12773 926 ft 144 kts 152°
2026-05-08 02:57 -15.64114 -56.12292 726 ft 141 kts 152°
2026-05-08 02:57 -15.64964 -56.11834 619 ft 129 kts 153°
2026-05-08 02:58 -15.65422 -56.11597 612 ft 12 kts 158°
2026-05-08 02:58 -15.65457 -56.11587 618 ft 5 kts 165°
2026-05-08 02:58 -15.65492 -56.11575 611 ft 5 kts 156°
2026-05-08 02:58 -15.65524 -56.11560 618 ft 5 kts 156°
2026-05-08 02:59 -15.65556 -56.11542 614 ft 5 kts 150°
2026-05-08 02:59 -15.65586 -56.11524 609 ft 5 kts 150°
2026-05-08 02:59 -15.65616 -56.11507 613 ft 5 kts 150°
2026-05-08 02:59 -15.65645 -56.11489 612 ft 5 kts 150°
2026-05-08 03:00 -15.65673 -56.11472 614 ft 5 kts 150°
2026-05-08 03:00 -15.65701 -56.11456 612 ft 5 kts 150°
2026-05-08 03:00 -15.65729 -56.11439 610 ft 5 kts 150°
2026-05-08 03:00 -15.65759 -56.11421 606 ft 5 kts 150°
2026-05-08 03:01 -15.65791 -56.11402 605 ft 5 kts 150°
2026-05-08 03:01 -15.65825 -56.11383 607 ft 6 kts 154°
2026-05-08 03:01 -15.65859 -56.11366 604 ft 5 kts 154°
2026-05-08 03:01 -15.65893 -56.11349 614 ft 5 kts 154°
2026-05-08 03:02 -15.65926 -56.11331 603 ft 5 kts 153°
2026-05-08 03:02 -15.65959 -56.11315 603 ft 5 kts 153°
2026-05-08 03:02 -15.65991 -56.11298 603 ft 5 kts 153°
2026-05-08 03:02 -15.66022 -56.11282 602 ft 5 kts 153°
2026-05-08 03:03 -15.66052 -56.11266 602 ft 5 kts 153°
2026-05-08 03:03 -15.66082 -56.11250 602 ft 5 kts 153°
2026-05-08 03:03 -15.66111 -56.11235 601 ft 5 kts 153°
2026-05-08 03:03 -15.66139 -56.11220 601 ft 5 kts 153°
2026-05-08 03:04 -15.66167 -56.11205 600 ft 4 kts 153°
2026-05-08 03:04 -15.66194 -56.11191 600 ft 4 kts 153°
2026-05-08 03:04 -15.66214 -56.11183 600 ft 1 kts 192°
2026-05-08 03:04 -15.66217 -56.11192 600 ft 2 kts 237°
2026-05-08 03:05 -15.66247 -56.11249 600 ft 11 kts 249°
2026-05-08 03:05 -15.66217 -56.11311 600 ft 10 kts 334°
2026-05-08 03:05 -15.66154 -56.11346 601 ft 10 kts 331°
2026-05-08 03:05 -15.66093 -56.11379 602 ft 10 kts 337°
2026-05-08 03:06 -15.66031 -56.11407 603 ft 10 kts 333°
2026-05-08 03:06 -15.65977 -56.11435 603 ft 9 kts 333°
2026-05-08 03:06 -15.65920 -56.11466 616 ft 9 kts 330°
2026-05-08 03:06 -15.65865 -56.11496 608 ft 9 kts 332°
2026-05-08 03:07 -15.65811 -56.11525 610 ft 9 kts 332°
2026-05-08 03:07 -15.65758 -56.11553 612 ft 8 kts 333°
2026-05-08 03:07 -15.65707 -56.11580 607 ft 8 kts 332°
2026-05-08 03:07 -15.65657 -56.11606 618 ft 8 kts 333°
2026-05-08 03:08 -15.65609 -56.11632 609 ft 8 kts 333°
2026-05-08 03:08 -15.65563 -56.11656 617 ft 7 kts 333°
2026-05-08 03:08 -15.65518 -56.11680 617 ft 7 kts 333°
2026-05-08 03:08 -15.65474 -56.11703 611 ft 7 kts 333°
2026-05-08 03:09 -15.65431 -56.11725 620 ft 7 kts 333°
2026-05-08 03:09 -15.65389 -56.11746 619 ft 7 kts 334°
2026-05-08 03:09 -15.65349 -56.11769 617 ft 7 kts 331°
2026-05-08 03:09 -15.65309 -56.11792 618 ft 6 kts 331°
2026-05-08 03:10 -15.65271 -56.11813 617 ft 6 kts 331°
2026-05-08 03:10 -15.65233 -56.11835 623 ft 6 kts 331°
2026-05-08 03:10 -15.65195 -56.11855 615 ft 6 kts 339°
2026-05-08 03:10 -15.65167 -56.11871 620 ft 2 kts 302°
2026-05-08 03:11 -15.65173 -56.11889 623 ft 3 kts 234°
2026-05-08 03:11 -15.65184 -56.11909 618 ft 3 kts 240°
2026-05-08 03:11 -15.65185 -56.11912 618 ft 0 kts 242°